Saipan, MP

6:13 AM ChST on July 28, 2017 (GMT +1000)
Saipan International

Weather History for PGSN - August, 2013

Change the Weather History Date:

Sunday, August 25, 2013

  Actual Average Record
Temperature  
Mean Temperature 82 °F -  
Max Temperature 86 °F 84 °F 89 °F (2016)
Min Temperature 79 °F 76 °F 73 °F (2003)
Cooling Degree Days 18    
Growing Degree Days 32 (Base 50)    
Moisture  
Dew Point 76 °F    
Average Humidity 80    
Maximum Humidity 85    
Minimum Humidity 72    
Precipitation  
Precipitation 0.07 in - - ()
Sea Level Pressure  
Sea Level Pressure 29.93 in    
Wind  
Wind Speed 6 mph (SSE)    
Max Wind Speed 8 mph    
Max Gust Speed -    
Visibility 10 miles    
Events Rain    
Averages and records for this station are not official NWS values.
T = Trace of Precipitation, MM = Missing Value Source: NWS Daily Summary

Daily Weather History Graph

Daily Weather History Graph

Search for Another Location

Airport or City:

Trip Planner

Search our weather history database for the weather conditions in past years. The results will help you decide how hot, cold, wet, or windy it might be!

Date:

Astronomy

Aug. 25, 2013 Rise Set
Actual Time 6:03 AM ChST 6:34 PM ChST
Civil Twilight 5:42 AM ChST 6:56 PM ChST
Nautical Twilight 5:16 AM ChST 7:21 PM ChST
Astronomical Twilight 4:50 AM ChST 7:47 PM ChST
Moon 9:35 PM ChST (8/25) 9:35 AM ChST (8/25)
Length of Visible Light 13h 14m
Length of Day
12h 30m
Waning Gibbous, 81% of the Moon is Illuminated
Aug 25
Waning Gibbous
Aug 28
Last Quarter
Sep 5
New
Sep 13
First Quarter
Sep 19
Full

Hourly Weather History & Observations

Time (ChST) Temp. Heat Index Dew Point Humidity Pressure Visibility Wind Dir Wind Speed Gust Speed Precip Events Conditions
12:54 AM 79.0 °F - 73.0 °F 82% 29.94 in 10.0 mi East 6.9 mph - 0.06 in   Scattered Clouds
1:54 AM 81.0 °F 87.3 °F 75.9 °F 85% 29.93 in 10.0 mi East 8.1 mph - N/A   Scattered Clouds
2:54 AM 80.1 °F 85.1 °F 75.0 °F 85% 29.93 in 10.0 mi ESE 5.8 mph - N/A   Scattered Clouds
3:54 AM 81.0 °F 87.3 °F 75.9 °F 85% 29.93 in 10.0 mi SE 6.9 mph - N/A   Scattered Clouds
4:54 AM 81.0 °F 86.7 °F 75.0 °F 82% 29.93 in 10.0 mi SE 8.1 mph - N/A   Scattered Clouds
5:54 AM 81.0 °F 87.3 °F 75.9 °F 85% 29.94 in 10.0 mi SE 6.9 mph - N/A   Partly Cloudy
6:54 AM 81.0 °F 87.3 °F 75.9 °F 85% 29.95 in 10.0 mi SSE 4.6 mph - N/A   Partly Cloudy
7:54 AM 82.9 °F 90.2 °F 75.0 °F 77% 29.96 in 10.0 mi SSE 6.9 mph - N/A   Partly Cloudy
8:54 AM 82.9 °F 91.8 °F 77.0 °F 82% 29.97 in 10.0 mi SSE 5.8 mph - N/A   Unknown
9:54 AM 82.9 °F 91.8 °F 77.0 °F 82% 29.96 in 10.0 mi SSE 5.8 mph - 0.01 in Rain Light Rain
10:54 AM 86.0 °F 96.9 °F 77.0 °F 74% 29.95 in 10.0 mi Variable 5.8 mph - 0.00 in   Partly Cloudy
11:54 AM 86.0 °F 96.9 °F 77.0 °F 74% 29.94 in 10.0 mi South 4.6 mph - N/A   Partly Cloudy
12:54 PM 84.9 °F 95.3 °F 77.0 °F 77% 29.91 in 10.0 mi South 6.9 mph - N/A   Scattered Clouds
1:54 PM 86.0 °F 96.9 °F 77.0 °F 74% 29.88 in 10.0 mi South 6.9 mph - N/A   Partly Cloudy
2:54 PM 86.0 °F 96.0 °F 75.9 °F 72% 29.88 in 10.0 mi South 4.6 mph - N/A   Partly Cloudy
3:54 PM 86.0 °F 96.9 °F 77.0 °F 74% 29.87 in 10.0 mi WSW 4.6 mph - N/A   Mostly Cloudy
4:54 PM 84.9 °F 94.1 °F 75.9 °F 74% 29.88 in 10.0 mi South 4.6 mph - N/A   Scattered Clouds
5:54 PM 82.9 °F 90.8 °F 75.9 °F 79% 29.89 in 10.0 mi Calm Calm - N/A   Scattered Clouds
6:54 PM 82.9 °F 90.2 °F 75.0 °F 77% 29.91 in 10.0 mi Calm Calm - N/A   Scattered Clouds
7:54 PM 82.0 °F 88.6 °F 75.0 °F 79% 29.94 in 10.0 mi North 3.5 mph - N/A   Mostly Cloudy
8:54 PM 82.0 °F 88.6 °F 75.0 °F 79% 29.96 in 10.0 mi North 3.5 mph - N/A   Scattered Clouds
9:54 PM 82.0 °F 88.6 °F 75.0 °F 79% 29.97 in 10.0 mi Calm Calm - N/A   Scattered Clouds
10:54 PM 81.0 °F 86.7 °F 75.0 °F 82% 29.97 in 10.0 mi Calm Calm - N/A   Scattered Clouds
11:54 PM 81.0 °F 87.3 °F 75.9 °F 85% 29.95 in 10.0 mi Calm Calm - N/A   Partly Cloudy